Japanese version Home page |
Updated on June 11, 2016 |
Profile
|
Orbital ElementsEpoch 2014 Aug. 11.0 TT = JDT 2456880.5 T 2014 July 24.75759 TT MPCW q 1.2531848 (2000.0) P Q n 0.17970626 Peri. 0.74768 +0.95213696 +0.30216569 a 3.1100014 Node 341.46198 -0.28119663 +0.80663889 e 0.5970469 Incl. 8.34884 -0.11984851 +0.50796613 P 5.48 From 303 observations 2003 July 30-2014 Dec. 15, mean residual 0".5.
|
Magnitudes Graphm1 = 18.5 + 5 log d + 10.0 log r
|
The orbital elements are published on M.P.E.C. 2015-A10.
|